Regional Weather Roundup
Issued by NWS Goodland, KS

Home | Current Version | Previous Version | Graphics & Text | Print | Product List | Glossary On
Versions: 1 2 3 4 5 6 7 8 9 10 11 12 13 14 15 16 17 18 19 20 21 22 23 24 25 26 27 28 29 30 31 32 33 34 35 36 37 38 39 40 41 42 43 44 45 46 47 48 49 50
000
ASUS43 KGLD 201859
RWRGLD

GOODLAND FORECAST AREA HOURLY WEATHER ROUNDUP
NATIONAL WEATHER SERVICE GOODLAND KS
1200 PM MST TUE FEB 20 2018

...OFFICIAL OBSERVATIONS...

CITY           SKY/WX    TMP DP  RH WIND       PRES   REMARKS
GOODLAND KS    FAIR      13   1  59 NW21      30.05F WCI  -5
HILL CITY KS   FAIR      24   3  40 N21G31    30.14R WCI   9
IMPERIAL NEB   FAIR      12   0  58 N17       30.10F WCI  -5
MCCOOK NEB     FAIR      15   2  56 N21G29    30.12F WCI  -2
AKRON CO       FAIR       6  -3  66 NW8       30.01F
BURLINGTON CO  FAIR      11  -1  58 N15       30.03F WCI  -5
LIMON CO       FAIR      13   3  64 NE9       29.95F
$$

...UNOFFICIAL OBSERVATIONS...

CITY           SKY/WX    TMP DP  RH WIND       PRES   REMARKS
LENORA KS        N/A     10  32 100 NW12        N/A  WCI  -5
NORTON KS      SUNNY     19   0  42 N14G25    30.13  WCI   6
SHARON SPRINGS   N/A     16   6  63 NW13G21     N/A  WCI   2
TRENTON NEB      N/A     11  32 100 NW10        N/A  WCI  -2
KIT CARSON CO    N/A     10   1  66 MISG        N/A
YUMA CO        FAIR      10   0  61 NW10      30.05F WCI  -3
$$



USA.gov is the U.S. government's official web portal to all federal, state and local government web resources and services.